Date,TemperatureHighF,TemperatureAvgF,TemperatureLowF,DewpointHighF,DewpointAvgF,DewpointLowF,HumidityHigh,HumidityAvg,HumidityLow,PressureMaxIn,PressureMinIn,WindSpeedMaxMPH,WindSpeedAvgMPH,GustSpeedMaxMPH,PrecipitationSumIn
2013-2-1,57.2,45.2,38.8,51.1,40.9,36.1,90,85,68,30.28,30.18,8,0,8,0.00
2013-2-2,57.7,47.5,37.9,46.6,38.6,33.1,83,71,63,30.22,30.16,8,0,8,0.00
2013-2-3,49.8,42.1,34.7,43.3,37.8,30.9,88,85,77,30.26,30.14,4,0,4,0.00
2013-2-4,55.4,44.5,38.1,45.1,38.9,34.5,88,81,64,30.15,29.85,6,0,6,0.00
2013-2-5,50.0,42.9,39.4,44.7,38.9,35.6,89,86,73,29.97,29.85,12,1,12,0.45
2013-2-6,51.5,43.5,37.8,44.3,38.5,34.8,90,83,69,30.02,29.76,10,1,10,0.06
2013-2-7,50.2,39.0,32.4,41.3,34.3,29.1,89,84,67,30.04,29.85,9,0,9,0.10
2013-2-8,38.7,34.2,28.8,35.0,30.8,25.7,90,87,84,30.18,30.04,4,0,4,0.00
2013-2-9,43.5,38.5,34.5,39.0,34.8,31.0,88,86,83,30.21,30.16,4,0,4,0.04
2013-2-10,44.1,39.9,37.8,40.7,36.6,34.7,90,88,86,30.25,30.20,3,0,3,0.00
2013-2-11,44.6,40.2,37.1,40.5,36.8,33.8,90,88,84,30.30,30.21,4,0,4,0.06
2013-2-12,55.2,45.6,41.9,48.8,42.1,39.1,91,88,75,30.38,30.29,11,1,11,0.10
2013-2-13,51.6,45.9,41.9,46.5,42.1,38.6,90,87,79,30.42,30.34,9,1,9,0.00
2013-2-14,53.8,45.1,38.3,46.1,40.6,34.8,90,84,73,30.49,30.41,5,0,5,0.00
2013-2-15,67.1,45.8,34.0,53.6,40.6,31.1,91,83,59,30.42,30.11,5,0,5,0.02
2013-2-16,50.2,42.7,36.5,45.5,38.5,32.1,89,85,79,30.19,30.12,9,1,9,0.13
2013-2-17,45.9,38.1,33.8,40.7,33.6,29.2,90,84,73,30.21,29.99,4,0,4,0.02
2013-2-18,49.1,39.1,32.4,38.7,32.8,28.4,86,78,65,30.00,29.65,6,0,6,0.00
2013-2-19,54.9,39.6,32.7,40.1,33.0,29.1,88,78,53,29.91,29.59,7,0,7,0.02
2013-2-20,48.6,40.0,34.0,39.4,34.5,30.4,88,81,65,29.99,29.91,11,1,11,0.10
2013-2-21,41.4,39.0,37.2,36.9,35.0,33.9,88,86,81,30.11,29.99,12,2,12,0.08
2013-2-22,42.8,40.2,35.4,38.9,36.5,32.2,89,87,81,30.08,29.80,14,3,16,0.47
2013-2-23,46.1,36.4,33.5,41.0,33.1,30.6,90,88,81,30.34,29.97,12,2,14,0.14
2013-2-24,53.8,40.6,32.9,41.8,34.9,30.0,90,81,60,30.34,30.03,5,0,5,0.00
2013-2-25,48.2,39.7,36.5,43.3,35.7,32.2,89,85,76,30.29,29.93,15,3,15,0.41
2013-2-26,48.2,40.2,32.4,37.9,34.1,28.9,88,79,66,30.29,30.15,8,0,8,0.00
2013-2-27,54.3,44.6,39.0,42.8,37.9,33.3,88,77,63,30.22,30.13,7,0,7,0.04
2013-2-28,55.4,49.0,43.2,51.0,45.3,39.9,89,87,83,30.37,30.11,11,1,11,0.10